Wind_Speed
15 17 16 16 16 17 17 17 15 13 13 14 14 14 15 16 17 15 15 17 17 17 18 19 20 21 20 18 18 19 19 20 22 22 23 23 23 22 22 22 22 23 23 23
14 15 15 15 17 18 18 16 14 12 13 13 13 14 16 17 17 18 18 18 18 18 19 21 21 21 20 19 19 20 20 21 22 22 23 23 23 23 24 23 23 23 23 23
14 15 16 17 17 18 18 16 15 13 13 12 14 16 16 17 19 19 19 19 18 19 20 21 21 21 21 21 20 21 22 22 22 22 22 22 23 23 24 24 24 24 24 24
15 16 17 16 16 16 16 16 16 16 16 16 16 17 17 18 20 20 20 19 20 19 20 21 22 21 20 21 21 22 22 23 23 23 23 23 23 24 24 24 24 24 24 24
16 16 15 15 14 15 15 16 17 18 19 19 19 20 20 21 22 22 21 20 21 20 21 21 20 19 19 20 21 21 22 23 23 23 23 24 24 24 24 24 24 24 24 24
16 17 15 14 14 14 15 17 19 19 19 20 19 21 21 22 22 23 23 22 21 20 20 20 19 18 19 20 20 21 22 22 23 24 24 24 24 24 23 23 24 24 24 24
15 14 13 13 13 14 15 16 19 21 22 22 20 22 23 23 22 22 23 23 22 20 20 20 19 19 20 20 21 21 22 23 23 24 24 24 24 23 23 23 24 24 23 23
14 13 12 12 13 14 15 17 18 19 21 22 23 25 24 24 24 23 22 20 20 20 19 20 19 20 20 21 21 22 23 24 24 24 24 23 23 24 23 23 23 23 22 22
12 12 12 13 13 14 15 16 18 20 19 20 22 25 25 23 22 21 20 21 21 19 18 18 20 20 20 21 21 22 23 23 24 24 24 24 24 24 24 23 24 23 23 23
12 12 13 14 15 15 16 16 18 20 20 20 21 22 22 20 20 21 21 21 21 19 18 18 19 19 20 21 22 23 24 24 25 25 25 24 24 24 24 24 24 24 23 22
12 12 13 14 15 16 17 17 18 19 20 20 21 21 20 20 21 21 22 22 21 19 19 19 19 20 21 22 22 23 24 24 25 25 25 24 24 25 25 25 24 24 23 22
11 12 13 14 15 16 17 18 19 20 20 21 23 23 21 21 21 22 21 21 21 21 21 21 20 21 22 23 23 24 24 25 25 25 25 24 24 24 24 24 23 23 22 22
11 12 12 13 15 16 18 18 18 19 20 21 22 23 22 21 21 20 20 20 20 21 21 20 21 22 22 22 23 23 24 24 25 24 24 24 24 23 23 22 22 21 21 20
11 12 12 12 13 15 16 16 17 18 20 20 20 20 21 21 21 21 20 20 19 19 19 19 18 20 21 22 23 23 24 24 24 24 23 23 23 22 22 21 21 20 20 19
10 11 11 12 13 14 14 15 16 18 18 19 18 18 19 19 19 19 18 18 19 18 19 18 18 19 20 21 22 22 23 23 22 21 21 22 22 21 21 20 19 19 18 18
11 11 10 10 12 13 14 15 15 15 16 17 17 17 18 18 18 17 16 17 17 18 18 18 18 18 19 20 20 21 21 21 20 20 21 21 20 19 18 17 17 16 16 15
11 11 10 10 11 12 13 12 13 13 14 15 16 17 17 17 17 17 17 17 16 16 17 17 18 18 18 18 18 19 19 19 19 19 18 17 16 16 15 15 15 15 15 13
11 11 11 11 11 11 10 10 11 11 12 13 14 14 14 15 15 16 16 16 16 15 15 15 15 16 16 17 17 18 18 17 17 16 14 13 12 12 12 12 13 12 11 11
10 10 10 9 11 11 9 9 11 12 11 11 11 11 11 12 13 13 13 14 14 14 13 13 14 14 15 16 16 16 16 15 13 12 11 10 9 9 9 9 9 8 8 8
9 9 10 10 11 11 9 9 9 10 10 9 9 9 9 10 10 10 11 11 12 12 11 11 12 13 14 14 14 14 13 12 11 10 9 8 8 8 8 7 6 6 6 6
8 9 9 10 10 10 8 9 8 8 8 8 9 8 8 9 9 9 8 8 9 10 10 10 11 11 12 12 13 12 11 11 9 8 7 7 7 7 6 5 4 4 4 3
7 8 8 8 8 8 8 8 8 8 7 7 7 7 7 8 8 7 7 7 8 8 9 9 9 9 11 11 12 11 10 9 8 7 6 6 6 5 4 4 4 4 3 3
7 7 7 7 7 7 7 8 7 7 6 6 6 6 6 6 5 5 5 6 7 8 8 8 8 8 10 11 12 12 10 9 8 6 5 5 5 5 4 3 3 3 2 2
6 6 6 6 6 5 5 5 5 5 5 5 5 4 5 5 4 4 5 5 6 7 7 7 7 7 9 10 11 11 10 9 7 7 6 5 5 4 4 4 4 4 4 4
5 5 5 4 4 4 4 3 4 4 5 4 4 4 4 4 4 4 5 5 5 6 6 7 7 7 8 9 11 11 10 9 8 7 6 6 6 5 6 6 5 5 4 4
4 4 4 3 3 4 4 4 4 4 4 4 4 4 4 4 3 4 4 4 5 5 6 7 7 7 8 9 10 10 11 10 9 8 8 7 7 7 6 6 6 5 5 4
Wind_Direction
195 196 196 202 205 206 207 209 214 221 229 241 253 267 268 273 278 274 279 280 279 282 282 284 286 284 284 285 288 291 291 291 291 292 292 290 289 287 287 286 286 285 283 278
193 194 193 198 205 207 206 209 214 221 231 243 259 269 269 273 280 282 285 281 280 284 283 283 285 285 286 286 289 291 292 292 292 291 290 289 288 287 287 288 289 289 286 282
194 194 197 200 207 213 211 210 211 223 236 251 264 265 269 276 280 281 284 284 282 283 281 283 285 286 286 289 289 290 292 292 292 292 292 291 289 288 288 288 288 287 287 283
198 199 200 204 210 215 211 209 214 225 236 245 252 258 265 274 280 283 282 285 285 285 283 281 284 284 286 289 288 287 289 289 290 292 292 292 291 290 289 288 286 283 281 280
202 204 204 206 207 216 217 216 219 227 235 244 250 256 261 269 278 284 284 285 287 284 284 282 283 285 287 290 288 287 288 290 291 291 290 290 291 290 289 287 285 282 280 279
210 211 209 208 209 219 221 223 226 233 240 245 250 258 263 271 279 283 284 286 286 283 284 284 285 286 287 291 292 291 291 291 292 292 291 291 292 290 289 287 288 285 282 279
215 216 215 217 216 220 227 232 234 236 239 244 251 259 267 274 279 282 284 283 281 285 287 288 288 289 291 292 294 294 293 293 293 293 291 291 292 292 292 292 290 287 282 278
216 218 221 223 222 225 230 237 241 242 245 247 253 261 269 276 278 281 285 283 278 280 288 287 287 290 290 294 296 297 295 293 292 292 290 290 291 292 293 293 292 289 285 281
223 223 227 229 230 231 233 240 246 249 250 252 254 260 267 275 281 281 285 290 289 287 288 288 287 288 290 295 297 296 296 294 292 291 291 290 289 291 291 290 290 288 285 283
234 231 230 232 233 234 237 243 247 250 256 258 259 263 265 276 282 281 286 293 294 289 287 286 286 287 290 293 295 296 296 295 293 293 292 290 289 289 290 289 289 289 284 281
245 240 235 235 240 241 241 245 251 255 258 263 265 269 274 278 281 282 285 290 293 290 285 288 287 287 289 293 296 296 297 296 294 292 290 289 288 287 288 288 288 287 285 285
249 247 246 245 245 246 245 249 253 254 257 261 266 271 275 280 281 283 286 293 296 295 293 291 290 290 292 294 295 297 297 295 294 292 290 288 288 287 287 287 286 286 285 285
247 247 248 249 246 246 247 249 252 256 260 261 265 270 275 280 282 286 290 293 294 297 294 293 291 291 292 294 296 298 297 296 295 293 291 290 288 287 287 287 285 285 285 285
251 252 255 257 252 249 249 253 255 258 262 265 269 272 278 280 281 284 290 292 294 296 296 296 295 293 293 295 297 300 300 298 296 293 292 291 289 287 286 285 284 284 283 283
251 254 255 257 254 251 253 256 258 260 266 270 275 277 282 285 286 287 291 294 296 296 298 296 296 298 298 299 302 303 304 301 298 296 293 291 289 286 285 285 283 283 283 283
254 258 256 253 254 258 256 258 262 265 268 271 276 280 283 285 286 288 292 295 297 295 298 297 301 305 305 305 305 305 305 304 302 299 297 293 290 287 286 285 284 285 285 284
255 256 254 252 253 264 260 263 269 274 276 277 279 280 283 285 286 288 291 293 299 302 304 303 304 305 307 307 308 309 309 307 306 303 300 296 293 291 289 287 287 288 286 284
255 256 258 255 257 271 272 275 279 285 285 282 285 286 285 284 288 293 297 299 305 310 310 310 310 311 313 314 314 314 314 312 311 308 305 302 300 298 296 294 292 294 291 286
254 257 261 266 267 276 285 287 288 293 294 295 291 292 292 292 292 298 303 305 306 314 313 314 316 317 317 317 318 320 319 318 317 316 313 310 306 306 306 307 303 299 298 295
252 254 262 269 276 280 287 293 291 292 298 304 301 300 301 302 303 304 305 307 311 317 318 322 325 324 324 324 326 326 326 325 325 324 323 320 317 315 315 315 310 302 300 292
257 259 265 268 274 282 295 299 294 295 304 305 306 306 307 310 309 308 312 315 320 321 329 334 334 334 336 335 335 335 336 335 335 332 326 324 326 321 321 324 324 320 319 310
263 266 272 275 277 290 301 302 301 304 307 308 308 309 312 315 313 308 314 324 327 332 340 345 347 349 350 351 351 351 350 348 348 346 344 347 352 349 343 335 332 335 341 346
261 263 272 279 287 295 299 306 310 313 313 311 311 315 323 325 326 322 328 337 339 344 351 358 2 0 360 1 2 3 3 3 6 7 7 10 10 3 0 3 5 13 27 51
257 261 268 277 286 297 307 313 321 323 326 323 323 331 342 346 341 339 342 348 350 353 357 4 9 8 9 10 10 12 11 14 20 24 21 19 18 18 25 32 43 55 65 72
248 256 265 274 282 301 308 313 322 320 324 329 333 335 344 349 351 358 1 2 5 5 9 11 17 18 17 16 17 17 20 24 26 29 30 34 38 41 48 58 69 78 78 73
252 260 257 260 281 306 314 310 316 327 335 340 343 339 342 347 352 2 8 16 22 23 22 21 23 25 24 23 23 24 27 29 32 34 37 39 41 46 54 63 72 80 79 73
Height
5848 5852 5854 5857 5859 5861 5863 5864 5866 5867 5868 5869 5870 5871 5871 5871 5871 5869 5870 5869 5869 5869 5868 5867 5866 5865 5863 5862 5861 5860 5858 5856 5854 5852 5850 5848 5846 5844 5843 5841 5839 5838 5837 5836
5848 5850 5852 5854 5856 5858 5859 5861 5862 5864 5865 5865 5866 5868 5868 5867 5867 5866 5866 5865 5865 5865 5864 5863 5862 5861 5860 5859 5857 5855 5854 5852 5850 5848 5845 5843 5841 5840 5838 5836 5834 5832 5831 5830
5845 5848 5849 5851 5853 5855 5857 5859 5860 5861 5862 5863 5864 5864 5864 5864 5864 5863 5862 5862 5861 5861 5860 5860 5858 5857 5856 5854 5853 5851 5849 5847 5845 5842 5840 5838 5836 5834 5833 5831 5829 5827 5825 5824
5843 5845 5847 5848 5850 5852 5854 5856 5857 5858 5858 5859 5861 5861 5861 5860 5859 5858 5858 5858 5857 5856 5856 5855 5854 5852 5851 5850 5848 5846 5844 5842 5840 5838 5835 5833 5831 5829 5827 5825 5823 5822 5820 5819
5841 5843 5844 5846 5848 5849 5851 5853 5854 5855 5855 5856 5857 5857 5858 5857 5856 5855 5854 5853 5852 5852 5851 5850 5849 5848 5847 5845 5843 5841 5839 5836 5834 5832 5830 5828 5825 5823 5821 5819 5817 5816 5814 5813
5839 5840 5842 5844 5845 5847 5848 5849 5850 5851 5852 5853 5854 5853 5853 5852 5851 5851 5850 5849 5848 5847 5847 5846 5845 5843 5842 5840 5838 5835 5833 5831 5828 5826 5824 5822 5820 5818 5815 5813 5811 5809 5808 5806
5837 5839 5840 5841 5842 5844 5845 5847 5848 5848 5848 5849 5850 5848 5848 5847 5847 5846 5845 5844 5843 5842 5841 5841 5840 5838 5836 5834 5832 5830 5827 5825 5822 5820 5818 5816 5814 5811 5809 5807 5805 5803 5801 5800
5835 5837 5838 5838 5839 5841 5842 5843 5845 5845 5845 5846 5845 5844 5844 5843 5842 5841 5839 5838 5836 5836 5835 5835 5834 5832 5831 5829 5826 5824 5821 5819 5817 5814 5812 5810 5808 5805 5803 5801 5799 5797 5795 5793
5832 5834 5835 5835 5836 5837 5838 5839 5840 5841 5840 5841 5840 5839 5839 5838 5837 5835 5835 5834 5832 5831 5830 5829 5828 5826 5825 5823 5820 5818 5815 5813 5811 5808 5806 5803 5801 5799 5797 5795 5793 5790 5788 5787
5829 5831 5832 5833 5833 5834 5835 5836 5836 5836 5836 5836 5835 5834 5835 5834 5833 5832 5830 5830 5828 5827 5825 5823 5821 5820 5819 5817 5814 5812 5809 5807 5804 5802 5799 5797 5794 5793 5791 5789 5787 5784 5782 5780
5826 5828 5829 5829 5830 5831 5832 5832 5832 5832 5831 5831 5830 5832 5831 5830 5829 5827 5826 5825 5824 5821 5820 5819 5816 5815 5813 5810 5808 5806 5803 5800 5798 5795 5792 5790 5788 5786 5784 5782 5780 5778 5776 5774
5823 5825 5825 5826 5827 5827 5827 5828 5828 5828 5827 5826 5826 5828 5826 5825 5824 5823 5821 5820 5819 5817 5815 5813 5811 5809 5807 5805 5802 5800 5796 5794 5791 5788 5785 5783 5781 5779 5777 5775 5773 5771 5770 5768
5821 5822 5822 5823 5825 5824 5824 5824 5823 5823 5823 5822 5822 5824 5821 5820 5819 5818 5816 5814 5813 5811 5809 5808 5806 5804 5802 5799 5797 5793 5790 5787 5784 5781 5778 5776 5773 5772 5770 5768 5766 5765 5763 5762
5818 5818 5820 5820 5819 5819 5819 5820 5819 5819 5818 5818 5818 5818 5817 5815 5814 5813 5811 5809 5808 5806 5804 5802 5800 5798 5796 5793 5791 5787 5784 5780 5777 5774 5771 5769 5766 5764 5763 5761 5760 5759 5757 5756
5815 5815 5815 5816 5815 5815 5815 5815 5815 5815 5814 5814 5814 5813 5812 5811 5810 5808 5806 5804 5803 5801 5799 5796 5795 5793 5790 5787 5784 5781 5777 5774 5770 5767 5765 5762 5760 5758 5756 5755 5754 5753 5751 5750
5812 5812 5812 5812 5812 5811 5811 5811 5811 5811 5810 5810 5809 5808 5807 5806 5805 5803 5802 5800 5798 5796 5794 5792 5789 5787 5784 5781 5778 5775 5772 5768 5765 5762 5759 5756 5754 5752 5751 5749 5748 5747 5746 5745
5809 5809 5809 5809 5809 5809 5808 5808 5807 5807 5806 5805 5804 5804 5802 5801 5800 5799 5797 5796 5794 5791 5789 5787 5785 5782 5780 5777 5773 5770 5766 5763 5759 5756 5753 5751 5749 5748 5746 5745 5743 5742 5741 5740
5806 5806 5806 5806 5807 5806 5807 5805 5804 5803 5802 5801 5800 5798 5797 5796 5795 5795 5793 5791 5790 5787 5785 5783 5781 5778 5775 5772 5769 5765 5762 5758 5755 5752 5749 5747 5746 5744 5742 5741 5739 5738 5737 5736
5804 5804 5803 5803 5803 5803 5803 5803 5801 5800 5798 5797 5796 5795 5794 5792 5791 5791 5789 5787 5786 5784 5782 5780 5777 5774 5771 5768 5765 5761 5758 5754 5751 5748 5746 5744 5743 5741 5739 5738 5737 5735 5734 5733
5801 5801 5802 5801 5800 5800 5802 5800 5798 5798 5795 5795 5793 5792 5791 5790 5789 5788 5786 5785 5783 5781 5778 5776 5774 5771 5768 5765 5761 5758 5754 5751 5748 5746 5744 5742 5741 5739 5737 5736 5735 5733 5732 5732
5798 5798 5798 5798 5797 5797 5798 5796 5796 5796 5795 5792 5791 5789 5788 5787 5787 5786 5784 5782 5780 5779 5776 5773 5771 5768 5765 5762 5759 5755 5752 5749 5746 5744 5742 5741 5739 5737 5736 5735 5734 5732 5731 5730
5796 5796 5796 5795 5795 5797 5795 5793 5793 5793 5791 5789 5788 5787 5786 5785 5783 5782 5781 5780 5778 5776 5774 5771 5769 5766 5764 5761 5757 5754 5750 5748 5745 5743 5741 5740 5738 5736 5735 5734 5733 5732 5731 5730
5793 5794 5793 5794 5795 5793 5792 5791 5790 5789 5788 5787 5786 5785 5784 5782 5781 5780 5779 5778 5776 5774 5772 5770 5768 5765 5763 5760 5757 5753 5750 5747 5745 5743 5741 5740 5738 5736 5735 5734 5733 5732 5731 5730
5791 5791 5791 5791 5791 5790 5790 5788 5787 5787 5786 5785 5784 5783 5782 5781 5780 5779 5778 5777 5775 5773 5771 5769 5767 5765 5762 5760 5757 5754 5750 5748 5745 5743 5741 5740 5738 5737 5735 5734 5733 5732 5732 5731
5789 5789 5789 5789 5789 5789 5788 5787 5786 5785 5784 5783 5782 5781 5780 5780 5779 5778 5777 5776 5774 5772 5771 5769 5767 5764 5762 5760 5757 5755 5752 5749 5746 5744 5743 5741 5739 5737 5736 5735 5734 5733 5733 5732
5787 5787 5787 5788 5787 5787 5787 5786 5784 5783 5782 5781 5781 5780 5779 5778 5778 5777 5776 5775 5773 5772 5770 5768 5766 5764 5762 5761 5758 5756 5753 5750 5748 5746 5744 5742 5740 5739 5738 5737 5736 5735 5734 5734